This demonstration page uses our WeatherBlox Daily Observations layout. Learn more.

Left ArrowRight Arrow

Hourly Observations for April 3, 2016

Temp ( °F °C ) Dew Point ( °F °C ) Humidity (%) Winds ( mph kmh ) Pressure ( in mb ) Visibility ( mi km ) Precip ( " mm )
12:54 am 00:54 Clear 38 3.3 30 -1.1 73 73 S 9 15 30.01 1016 10 16 0.00 0.00
1:54 am 01:54 Clear 42 5.6 31 -0.6 65 65 S 9 15 29.98 1015 10 16 0.00 0.00
2:54 am 02:54 Clear 48 8.9 31 -0.6 52 52 S 12 19 29.96 1015 10 16 0.00 0.00
3:54 am 03:54 Clear 49 9.4 30 -1.1 48 48 SSW 13 20 29.94 1014 9 14 0.00 0.00
4:54 am 04:54 Clear 48 8.9 30 -1.1 50 50 SSW 10 17 29.93 1013 8 13 0.00 0.00
5:54 am 05:54 Clear 48 8.9 32 0 54 54 SSW 15 24 29.90 1013 10 16 0.00 0.00
6:54 am 06:54 Clear 48 8.9 32 0 54 54 SW 10 17 29.89 1012 10 16 0.00 0.00
7:54 am 07:54 Sunny 49 9.4 33 0.6 55 55 SSW 14 22 29.87 1012 10 16 0.00 0.00
8:54 am 08:54 Sunny 54 12.2 34 1.1 47 47 SW 13 20 29.86 1011 10 16 0.00 0.00
9:54 am 09:54 Sunny 60 15.6 34 1.1 38 38 SW 22 35 29.83 1010 10 16 0.00 0.00
10:54 am 10:54 Sunny 67 19.4 35 1.7 31 31 SW 22 35 29.82 1010 10 16 0.00 0.00
11:54 am 11:54 Sunny 76 24.4 34 1.1 22 22 WSW 20 31 29.78 1009 10 16 0.00 0.00
12:54 pm 12:54 Sunny 81 27.2 30 -1.1 16 16 W 22 35 29.76 1008 10 16 0.00 0.00
1:54 pm 13:54 Sunny 82 27.8 31 -0.6 16 16 W 20 31 29.73 1007 10 16 0.00 0.00
2:54 pm 14:54 Sunny 84 28.9 30 -1.1 14 14 W 20 31 29.71 1006 10 16 0.00 0.00
3:54 pm 15:54 Sunny 84 28.9 27 -2.8 12 12 WNW 17 28 29.69 1006 10 16 0.00 0.00
4:54 pm 16:54 Sunny 84 28.9 28 -2.2 13 13 WNW 20 31 29.69 1005 10 16 0.00 0.00
5:54 pm 17:54 Sunny 82 27.8 31 -0.6 16 16 WNW 18 30 29.70 1006 10 16 0.00 0.00
6:54 pm 18:54 Mostly Sunny 79 26.1 36 2.2 21 21 NNW 16 26 29.73 1007 10 16 0.00 0.00
7:54 pm 19:54 Sunny 74 23.3 34 1.1 23 23 NW 8 13 29.75 1008 10 16 0.00 0.03
8:54 pm 20:54 Clear 70 21.1 33 0.6 26 26 NNW 15 24 29.80 1009 10 16 0.00 0.00
9:54 pm 21:54 Clear 63 17.2 37 2.8 38 38 N 14 22 29.85 1011 10 16 0.00 0.00
10:54 pm 22:54 Clear 61 16.1 38 3.3 43 43 N 13 20 29.91 1013 10 16 0.00 0.00
11:54 pm 23:54 Clear 53 11.7 37 2.8 55 55 N 8 13 29.94 1014 10 16 0.00 0.00

Powered by AerisWeather